Regional Weather Roundup
Issued by NWS

Home | Current Version | Previous Version | Graphics & Text | Print | Product List | Glossary Off
Versions: 1 2 3 4 5 6 7 8 9 10 11 12 13 14 15 16 17 18 19 20 21 22 23 24 25 26 27 28 29 30 31 32 33 34 35 36 37 38 39 40 41 42 43 44 45 46 47 48 49 50

000
ASUS43 KTOP 221559
RWRKS

WEATHER ROUNDUP FOR KANSAS
NATIONAL WEATHER SERVICE GOODLAND KS
1100 AM CDT SUN OCT 22 2017

NOTE:  "FAIR" INDICATES FEW OR NO CLOUDS BELOW 12,000 FEET WITH NO
SIGNIFICANT WEATHER AND/OR OBSTRUCTIONS TO VISIBILITY.

KSZ001>006-013>018-027>032-041>047-221700-
NORTHWEST KANSAS

CITY           SKY/WX    TMP DP  RH WIND       PRES   REMARKS
GOODLAND       SUNNY     56  20  24 SW16G25   30.20F
HAYS           SUNNY     57  30  35 W8        30.20S
HILL CITY      SUNNY     56  32  40 W12       30.20S
RUSSELL        SUNNY     52  36  54 W7        30.18S
$$

KSZ061>065-074>080-084>089-221700-
SOUTHWEST KANSAS

CITY           SKY/WX    TMP DP  RH WIND       PRES   REMARKS
DODGE CITY     SUNNY     57  24  28 W12       30.25S
ELKHART          N/A     57  23  26 S7          N/A
GARDEN CITY    SUNNY     54  25  32 W10       30.25S
GREAT BEND     SUNNY     56  32  40 W9        30.21S
LIBERAL        SUNNY     59  25  27 SW6       30.28S
$$

KSZ066>073-081>083-090>101-221700-
SOUTHEAST KANSAS

CITY           SKY/WX    TMP DP  RH WIND       PRES   REMARKS
CHANUTE        MOSUNNY   58  46  64 NW14      30.16R
COFFEYVILLE    CLOUDY    57  47  69 NW9       30.16R
HUTCHINSON     SUNNY     57  41  55 W5        30.20S
MEDICINE LODGE   N/A     58  35  42 W7        30.22S
NEWTON         SUNNY     59  42  53 NW7       30.20R
PARSONS        CLOUDY    56  46  69 N10       30.17R
WICHITA INTL   MOSUNNY   60  45  57 NW7       30.20R
WICHITA JABRA  SUNNY     58  44  60 W10       30.20R
WICHITA MCCONL SUNNY     59  42  53 N8        30.20R
WINFIELD       SUNNY     58  47  66 NW12      30.21S
$$

KSZ007>012-019>026-033>040-048>060-102>105-221700-
NORTHEAST KANSAS

CITY           SKY/WX    TMP DP  RH WIND       PRES   REMARKS
CONCORDIA      SUNNY     59  40  49 W5        30.16F
EMPORIA        SUNNY     57  45  64 NW9       30.18R
LAWRENCE       MOSUNNY   56  49  77 W12       30.15R
MANHATTAN      SUNNY     60  43  53 W8        30.18R
OLATHE IND     PTSUNNY   54  46  74 NW13      30.14R
OLATHE EXE     CLOUDY    54  45  71 NW9       30.13R
SALINA         SUNNY     59  44  57 VRB3      30.20R
TOPEKA BILLARD MOSUNNY   55  47  74 W7        30.16R
TOPEKA FORBES  MOSUNNY   57  46  66 NW8       30.16R
$$




USA.gov is the U.S. government's official web portal to all federal, state and local government web resources and services.